FW93366 Weather Reports


time (UTC)temp
C
wind
direction
speed
KPH
gust
KPH
rain 1hr
cm
rain 24hr
cm
rain mn
cm
humidity
%
barometer
mb
20260505220048 15 144 1.6 14.5 0.00 0.81 0.51 57 1014.0
20260505214603 15 0 3.2 12.9 0.00 0.81 0.51 61 1014.2
20260505213051 14 219 4.8 11.3 0.00 0.81 0.51 63 1014.3
20260505211539 14 217 6.4 12.9 0.00 0.81 0.51 63 1014.6
20260505210054 14 338 4.8 12.9 0.00 0.81 0.51 64 1014.6
20260505204555 13 185 4.8 14.5 0.00 0.81 0.51 70 1014.6
20260505203050 13 141 3.2 11.3 0.00 0.81 0.51 71 1014.7
20260505201541 12 143 1.6 9.7 0.00 0.81 0.51 71 1014.8
20260505200100 12 86 1.6 11.3 0.00 0.81 0.51 70 1015.0
20260505194548 11 0 3.2 9.7 0.00 0.81 0.51 73 1015.1
20260505193050 11 146 3.2 12.9 0.00 0.81 0.51 74 1015.1
20260505191544 10 0 3.2 11.3 0.00 0.81 0.51 74 1015.1
20260505190043 10 165 6.4 14.5 0.00 0.81 0.51 73 1015.0
20260505184539 9 0 4.8 11.3 0.00 0.81 0.51 75 1015.0
20260505183046 8 0 0.0 6.4 0.00 0.81 0.51 79 1015.0
20260505181544 8 0 0.0 0.0 0.00 0.81 0.51 78 1015.0
20260505180103 8 0 0.0 0.0 0.00 0.81 0.51 77 1014.8
20260505174559 8 0 0.0 0.0 0.00 0.81 0.51 80 1014.5
20260505173044 8 0 0.0 0.0 0.00 0.81 0.51 80 1014.3
20260505171543 7 0 1.6 4.8 0.00 0.81 0.51 82 1014.1
20260505170038 7 0 0.0 6.4 0.00 0.81 0.51 84 1014.0
20260505164549 7 133 0.0 6.4 0.00 0.81 0.51 84 1014.0
20260505163040 7 92 0.0 3.2 0.00 0.81 0.51 84 1013.8
20260505161540 7 0 0.0 3.2 0.00 0.81 0.51 87 1013.7
20260505153045 6 160 3.2 8.0 0.00 0.81 0.51 87 1013.4
20260505151543 6 173 0.0 8.0 0.00 0.81 0.51 88 1013.4
20260505124546 6 220 0.0 4.8 0.00 0.84 0.51 93 1011.6
20260505123039 6 0 0.0 0.0 0.00 0.84 0.51 93 1011.5
20260505121539 6 0 0.0 0.0 0.00 0.84 0.51 93 1011.5
20260505120046 6 0 0.0 4.8 0.03 0.84 0.51 93 1011.5
20260505114545 6 0 0.0 0.0 0.03 0.84 0.51 93 1011.4
20260505113045 6 0 0.0 1.6 0.08 0.84 0.51 93 1011.4
20260505111540 6 0 0.0 0.0 0.08 0.84 0.51 93 1011.6
20260505101541 6 0 0.0 4.8 0.23 0.76 0.43 93 1011.7
20260505100044 6 0 0.0 1.6 0.20 0.74 0.41 93 1012.0
20260505094541 6 196 0.0 6.4 0.18 0.66 0.33 93 1011.7
20260505093041 6 0 0.0 0.0 0.10 0.56 0.23 93 1012.1
20260505091559 6 259 0.0 6.4 0.10 0.53 0.20 92 1012.2
20260505090047 6 265 1.6 4.8 0.10 0.53 0.20 92 1012.3
20260505084541 6 21 0.0 6.4 0.08 0.48 0.15 92 1012.3
20260505083046 6 13 1.6 4.8 0.05 0.46 0.13 92 1012.3
20260505081557 6 295 0.0 11.3 0.03 0.43 0.10 91 1012.1
20260505080054 6 0 0.0 0.0 0.10 0.43 0.10 91 1012.4
20260505074545 6 0 0.0 0.0 0.10 0.41 0.08 90 1012.7
20260505073046 6 0 0.0 0.0 0.10 0.41 0.08 90 1012.7
20260505071552 6 0 0.0 0.0 0.10 0.41 0.08 91 1012.4
20260505070046 6 0 0.0 0.0 0.08 0.33 0.00 90 1012.4
20260505064539 7 0 0.0 0.0 0.05 0.30 0.30 91 1012.4
20260505063104 7 0 0.0 0.0 0.05 0.30 0.30 91 1012.3
20260505061610 7 0 0.0 0.0 0.15 0.30 0.30 90 1012.0
20260505060042 7 0 0.0 6.4 0.13 0.25 0.25 90 1012.2
20260505054545 6 218 3.2 9.7 0.13 0.25 0.25 89 1012.3
20260505053047 7 202 3.2 8.0 0.15 0.25 0.25 89 1012.6
20260505051604 7 0 0.0 0.0 0.08 0.15 0.15 88 1012.8
20260505041543 7 205 4.8 14.5 0.00 0.08 0.08 79 1012.2
20260505040041 7 281 8.0 17.7 0.00 0.08 0.08 77 1012.2
20260505034543 7 244 9.7 20.9 0.00 0.08 0.08 75 1012.4
20260505033044 7 261 12.9 24.1 0.00 0.08 0.08 77 1012.1
20260505031553 8 259 12.9 19.3 0.00 0.08 0.08 73 1011.7
20260505030044 8 268 4.8 29.0 0.03 0.08 0.08 69 1011.6
20260505024548 8 300 8.0 17.7 0.03 0.08 0.08 71 1011.2
20260505023048 7 259 8.0 29.0 0.03 0.08 0.08 74 1011.2
20260505021549 7 293 6.4 20.9 0.03 0.08 0.08 76 1011.4
20260505020043 8 290 3.2 19.3 0.03 0.05 0.05 80 1012.1
20260505014544 8 306 11.3 22.5 0.03 0.05 0.05 74 1012.2
20260505013045 8 292 11.3 25.7 0.03 0.05 0.05 75 1012.3
20260505011545 8 270 16.1 29.0 0.03 0.05 0.05 71 1012.2
20260505010043 10 312 8.0 19.3 0.00 0.03 0.03 66 1012.3
20260505004539 11 0 1.6 11.3 0.00 0.03 0.03 67 1012.0
20260505003039 11 0 3.2 9.7 0.00 0.03 0.03 65 1011.7
20260505001539 12 0 0.0 8.0 0.00 0.03 0.03 62 1011.6
20260505000047 12 309 1.6 16.1 0.00 0.03 0.03 62 1011.5
20260504234542 13 206 6.4 16.1 0.00 0.05 0.03 58 1011.2
20260504233048 13 300 1.6 9.7 0.00 0.05 0.03 59 1010.8
20260504231546 13 265 11.3 30.6 0.00 0.05 0.03 58 1010.9
20260504230050 13 245 14.5 29.0 0.00 0.05 0.03 60 1011.1
20260504224540 12 304 11.3 25.7 0.00 0.05 0.03 62 1011.5
20260504223041 12 160 3.2 11.3 0.00 0.05 0.03 58 1011.7
20260504221539 12 173 4.8 20.9 0.00 0.05 0.03 63 1012.0